Driggs, ID

9:47 AM MST on February 27, 2017 (GMT -0700)
Driggs

Weather History for KDIJ - December, 2012

Change the Weather History Date:

Saturday, December 8, 2012

  Actual Average (KJAC) Record (KJAC)
Temperature  
Mean Temperature 16 °F -  
Max Temperature 27 °F 28 °F 45 °F (1962)
Min Temperature 5 °F 2 °F -29 °F (2005)
Degree Days  
Heating Degree Days 48    
Moisture  
Dew Point 12 °F    
Average Humidity 71    
Maximum Humidity 93    
Minimum Humidity 40    
Precipitation  
Precipitation 0.00 in - - ()
Sea Level Pressure  
Sea Level Pressure 29.84 in    
Wind  
Wind Speed 16 mph (West)    
Max Wind Speed 28 mph    
Max Gust Speed 38 mph    
Visibility 7 miles    
Events Fog , Snow    
Averages and records for this station are not official NWS values.
T = Trace of Precipitation, MM = Missing Value Source: NWS Daily Summary

Daily Weather History Graph

Daily Weather History Graph

Search for Another Location

Airport or City:

Trip Planner

Search our weather history database for the weather conditions in past years. The results will help you decide how hot, cold, wet, or windy it might be!

Date:

Astronomy

Dec. 08, 2012 Rise Set
Actual Time 7:45 AM MST 4:47 PM MST
Civil Twilight 7:13 AM MST 5:19 PM MST
Nautical Twilight 6:37 AM MST 5:55 PM MST
Astronomical Twilight 6:02 AM MST 6:30 PM MST
Moon 2:06 AM MST (12/8) 1:26 PM MST (12/8)
Length of Visible Light 10h 06m
Length of Day
9h 01m
Waning Crescent, 27% of the Moon is Illuminated
Dec 8
Waning Crescent
Dec 13
New
Dec 19
First Quarter
Dec 28
Full
Jan 4
Last Quarter

Hourly Weather History & Observations

Time (MST) Temp. Windchill Dew Point Humidity Pressure Visibility Wind Dir Wind Speed Gust Speed Precip Events Conditions
12:05 AM 24.8 °F 10.7 °F 19.4 °F 80% 29.78 in 5.0 mi SW 19.6 mph - 0.00 in Snow Light Snow
12:13 AM 24.8 °F 11.1 °F 19.4 °F 80% 29.77 in 2.5 mi SW 18.4 mph - 0.00 in Snow Light Snow
12:18 AM 24.8 °F 12.4 °F 21.2 °F 86% 29.77 in 2.0 mi SSW 15.0 mph - 0.00 in Snow Light Snow
12:27 AM 24.8 °F 12.9 °F 19.4 °F 80% 29.76 in 5.0 mi SW 13.8 mph - 0.00 in   Haze
12:36 AM 26.6 °F 14.3 °F 19.4 °F 74% 29.76 in 10.0 mi SW 16.1 mph - 0.00 in   Mostly Cloudy
12:56 AM 27.1 °F 11.8 °F 17.1 °F 66% 29.75 in 10.0 mi SW 26.5 mph 35.7 mph 0.00 in   Partly Cloudy
1:56 AM 27.1 °F 12.4 °F 16.2 °F 63% 29.71 in 10.0 mi WSW 24.2 mph 38.0 mph N/A   Clear
2:56 AM 26.1 °F 10.7 °F 17.1 °F 69% 29.71 in 10.0 mi WSW 25.3 mph 36.8 mph N/A   Clear
3:56 AM 25.2 °F 10.1 °F 18.1 °F 75% 29.71 in 10.0 mi WSW 23.0 mph - N/A   Partly Cloudy
4:56 AM 25.2 °F 11.6 °F 18.1 °F 75% 29.73 in 10.0 mi WSW 18.4 mph - N/A   Mostly Cloudy
5:18 AM 26.6 °F 13.1 °F 17.6 °F 69% 29.71 in 10.0 mi WSW 19.6 mph - N/A   Mostly Cloudy
5:30 AM 26.6 °F 13.4 °F 17.6 °F 69% 29.71 in 10.0 mi West 18.4 mph - N/A   Mostly Cloudy
5:36 AM 24.8 °F 9.3 °F 17.6 °F 74% 29.73 in 2.5 mi WNW 24.2 mph - 0.00 in Snow Light Snow
5:38 AM 24.8 °F 9.3 °F 17.6 °F 74% 29.73 in 1.0 mi NW 24.2 mph - 0.00 in Snow Light Snow
5:40 AM 21.2 °F 3.5 °F 17.6 °F 86% 29.73 in 0.5 mi NW 27.6 mph - 0.00 in Snow Snow
5:43 AM 21.2 °F 5.2 °F 17.6 °F 86% 29.73 in 0.2 mi NW 21.9 mph - 0.00 in Fog , Snow Snow
5:56 AM 20.1 °F 5.4 °F 17.1 °F 88% 29.78 in 0.8 mi NW 17.3 mph - 0.00 in Snow Light Snow
6:09 AM 19.4 °F 5.5 °F 17.6 °F 93% 29.74 in 1.2 mi NW 15.0 mph - 0.00 in Snow Light Snow
6:24 AM 19.4 °F 3.6 °F 17.6 °F 93% 29.75 in 0.8 mi NW 19.6 mph - 0.00 in Snow Light Snow
6:56 AM 19.0 °F 7.5 °F 16.2 °F 89% 29.83 in 1.5 mi WNW 10.4 mph - 0.00 in Snow Light Snow
7:12 AM 17.6 °F 4.3 °F 15.8 °F 93% 29.79 in 3.0 mi NW 12.7 mph - 0.00 in Snow Light Snow
7:28 AM 17.6 °F 1.7 °F 10.4 °F 73% 29.81 in 3.0 mi NW 18.4 mph - 0.00 in Snow Light Snow
7:38 AM 17.6 °F 7.3 °F 10.4 °F 73% 29.80 in 10.0 mi NW 8.1 mph - 0.00 in Snow Light Snow
7:56 AM 18.1 °F 7.9 °F 10.0 °F 71% 29.84 in 10.0 mi NNW 8.1 mph - 0.00 in   Mostly Cloudy
8:56 AM 17.1 °F 2.0 °F 3.0 °F 54% 29.88 in 10.0 mi North 16.1 mph - N/A   Partly Cloudy
9:56 AM 15.1 °F 6.4 °F 2.1 °F 57% 29.92 in 10.0 mi WNW 5.8 mph - N/A   Clear
10:56 AM 19.0 °F - 2.1 °F 48% 29.94 in 10.0 mi Calm Calm - N/A   Clear
11:56 AM 20.1 °F 8.8 °F 2.1 °F 46% 29.93 in 10.0 mi WNW 10.4 mph - N/A   Scattered Clouds
12:56 PM 20.1 °F 7.5 °F 1.0 °F 44% 29.92 in 10.0 mi WNW 12.7 mph - N/A   Partly Cloudy
1:56 PM 22.1 °F 9.5 °F 1.0 °F 40% 29.92 in 10.0 mi West 13.8 mph - N/A   Mostly Cloudy
2:56 PM 19.0 °F 8.2 °F 2.1 °F 48% 29.96 in 10.0 mi WNW 9.2 mph - N/A   Scattered Clouds
3:56 PM 20.1 °F 13.6 °F 2.1 °F 46% 29.98 in 10.0 mi NW 4.6 mph - N/A   Partly Cloudy
4:56 PM 16.2 °F - 5.0 °F 62% 30.01 in 10.0 mi Calm Calm - N/A   Mostly Cloudy
7:56 PM 8.1 °F - 3.0 °F 80% 30.13 in 10.0 mi Calm Calm - N/A   Clear
8:56 PM 7.2 °F 0.3 °F 1.0 °F 76% 30.15 in 10.0 mi East 3.5 mph - N/A   Clear
9:56 PM 6.1 °F - 0.1 °F 77% 30.17 in 10.0 mi Calm Calm - N/A   Clear
10:56 PM 5.0 °F - -0.9 °F 76% 30.17 in 10.0 mi Calm Calm - N/A   Clear